Regional Weather Roundup
Issued by NWS

Home | Current Version | Previous Version | Graphics & Text | Print | Product List | Glossary On
Versions: 1 2 3 4 5 6 7 8 9 10 11 12 13 14 15 16 17 18 19 20 21 22 23 24 25 26 27 28 29 30 31 32 33 34 35 36 37 38 39 40 41 42 43 44 45 46 47 48 49 50
000
ASUS45 KPSR 201200
RWRAZ

PRELIMINARY ARIZONA REGIONAL HOURLY WEATHER ROUNDUP
NATIONAL WEATHER SERVICE PHOENIX AZ
500 AM MST MON OCT 20 2014

NOTE: FAIR INDICATES FEW OR NO CLOUDS BELOW 12,000 FEET WITH NO
SIGNIFICANT WEATHER AND/OR OBSTRUCTIONS TO VISIBILITY.

AZZ001>003-036-201300-
NORTHWEST ARIZONA

CITY           SKY/WX    TMP DP  RH WIND       PRES   REMARKS
KINGMAN        CLEAR     60  43  53 SE13      29.98R
6HR MIN TEMP:  53; 6HR MAX TEMP:  63;

$$

AZZ004>008-015-016-018-201300-
NORTH CENTRAL ARIZONA

CITY           SKY/WX    TMP DP  RH WIND       PRES   REMARKS
GRAND CANYON   CLEAR     38  34  85 NE8       30.16F WCI  32
6HR MIN TEMP:  38; 6HR MAX TEMP:  49;

PRESCOTT       CLEAR     46  40  79 CALM      30.08R
6HR MIN TEMP:  45; 6HR MAX TEMP:  55;

FLAGSTAFF      CLEAR     34  31  88 CALM      30.18R
6HR MIN TEMP:  33; 6HR MAX TEMP:  40;

PAYSON         CLEAR     48  41  76 CALM      30.11S
$$

AZZ009>014-017-201300-
NORTHEAST ARIZONA

CITY           SKY/WX    TMP DP  RH WIND       PRES   REMARKS
WINSLOW        NOT AVBL
SAINT JOHNS    CLEAR     41  40  96 CALM      30.12R
6HR MIN TEMP:  40; 6HR MAX TEMP:  48;

$$

AZZ023-201300-
GREATER PHOENIX AREA

CITY           SKY/WX    TMP DP  RH WIND       PRES   REMARKS
PHOENIX        CLEAR     68  57  68 CALM      29.87R
6HR MIN TEMP:  67; 6HR MAX TEMP:  74;

DEER VALLEY    CLEAR     63  56  78 CALM      29.89R
6HR MIN TEMP:  63; 6HR MAX TEMP:  72;

SCOTTSDALE     CLEAR     66  52  60 NW3       29.90R
6HR MIN TEMP:  66; 6HR MAX TEMP:  73;

MESA-GATEWAY   MOCLDY    63  52  67 SE5       29.90S
$$

AZZ027-028-201300-
SOUTHWEST MARICOPA COUNTY AND PINAL COUNTY

CITY           SKY/WX    TMP DP  RH WIND       PRES   REMARKS
CASA GRANDE    CLEAR     66  48  52 CALM      29.89R
6HR MIN TEMP:  64; 6HR MAX TEMP:  70;

$$

AZZ503-504-507>509-201300-
SOUTHEAST ARIZONA

CITY           SKY/WX    TMP DP  RH WIND       PRES   REMARKS
TUCSON         CLEAR     65  49  56 E13       29.94S
6HR MIN TEMP:  63; 6HR MAX TEMP:  66;

NOGALES        CLEAR     55  45  68 NE3       29.99R
6HR MIN TEMP:  52; 6HR MAX TEMP:  59;

SIERRA VISTA   CLEAR     55  46  71 SE9       30.04R
SAFFORD        CLEAR     55  51  86 E8        30.02R
6HR MIN TEMP:  55; 6HR MAX TEMP:  60;

$$

AZZ020-021-025-026-031-201300-
SOUTHWEST ARIZONA

CITY           SKY/WX    TMP DP  RH WIND       PRES   REMARKS
YUMA           CLEAR     75  63  66 E7        29.80R
6HR MIN TEMP:  75; 6HR MAX TEMP:  78;

$$

CAZ031-033-041-043-047-048-061-201300-
SOUTHERN CALIFORNIA

CITY           SKY/WX    TMP DP  RH WIND       PRES   REMARKS
DOWNTOWN L.A.  PTCLDY    63  59  87 CALM      29.88S
6HR MIN TEMP:  63; 6HR MAX TEMP:  68;

L.A. AIRPORT   CLOUDY    66  62  87 W3        29.89R
6HR MIN TEMP:  65; 6HR MAX TEMP:  67;

SAN DIEGO      MOCLDY    67  60  78 CALM      29.90R
6HR MIN TEMP:  66; 6HR MAX TEMP:  68;

BURBANK        CLOUDY    63  57  82 NW5       29.89S FOG
6HR MIN TEMP:  60; 6HR MAX TEMP:  65;

ONTARIO        CLEAR     60  58  92 E3        29.89S
6HR MIN TEMP:  60; 6HR MAX TEMP:  67;

RIVERSIDE      CLEAR     60  56  86 CALM      29.90R
6HR MIN TEMP:  60; 6HR MAX TEMP:  67;

PALM SPRINGS   CLEAR     70  55  59 CALM      29.82S
6HR MIN TEMP:  69; 6HR MAX TEMP:  79;

EL CENTRO NAS  CLEAR     71  50  47 S5        29.78R
6HR MIN TEMP:  67; 6HR MAX TEMP:  77;

IMPERIAL       CLEAR     69  53  56 S3        29.78R
6HR MIN TEMP:  67; 6HR MAX TEMP:  78;

BLYTHE         CLEAR     67  47  48 CALM      29.81R
6HR MIN TEMP:  67; 6HR MAX TEMP:  79;

$$

NVZ020-UTZ003-201300-
SOUTHERN NEVADA-UTAH

CITY           SKY/WX    TMP DP  RH WIND       PRES   REMARKS
LAS VEGAS      NOT AVBL
SALT LAKE CITY PTCLDY    50  39  66 SE7       30.03S
6HR MIN TEMP:  48; 6HR MAX TEMP:  53;

$$

NMZ009-TXZ055-201300-
NEW MEXICO-WEST TEXAS

CITY           SKY/WX    TMP DP  RH WIND       PRES   REMARKS
ALBUQUERQUE    PTCLDY    49  42  77 CALM      30.19R
6HR MIN TEMP:  48; 6HR MAX TEMP:  55;

EL PASO        MOCLDY    58  54  86 N8        30.07S
6HR MIN TEMP:  57; 6HR MAX TEMP:  62;

$$


........................KEY........................
SKY/WX - SKY CONDITION/WEATHER
TMP    - TEMPERATURE IN FAHRENHEIT
DP     - DEW POINT IN FAHRENHEIT
RH     - RELATIVE HUMIDITY IN PERCENT
WIND   - DIRECTION AND SPEED IN MILES PER HOUR (MPH)
VRB    - VARIABLE WIND DIRECTION
PRES   - MEAN SEA LEVEL PRESSURE IN INCHES OF MERCURY
         F - FALLING PRESSURE   R - RISING PRESSURE
         S - STEADY PRESSURE
VSB    - VISIBILITY IN MILES
HX     - HEAT INDEX IN FAHRENHEIT
WCI    - WIND CHILL INDEX IN FAHRENHEIT
TC     - TEMPERATURE IN CELSIUS WHICH IS ALSO KNOWN AS
         TEMPERATURE IN CENTIGRADE
AFB    - AIR FORCE BASE
         LUKE AFB IS LUKE AIR FORCE BASE
         DAVIS-MONTHAN IS DAVIS-MONTHAN AIR FORCE BASE
NAS    - NAVAL AIR STATION
         EL CENTRO NAS IS EL CENTRO NAVAL AIR STATION
N/A    - NOT AVAILABLE



USA.gov is the U.S. government's official web portal to all federal, state and local government web resources and services.